User: anonymous   Login
Location: Unspecified
(0.0000°N, 0.0000°E)
Time: 19:08:49
(UTC+00:00)
Language:

SO-67 - Orbit

View from above orbital plane
View from above orbital plane
View from above satellite
View from above satellite

Ground track
Ground track

The orbit data is extracted from the following two-line orbital elements,

1 35870U 09049F   15142.53710330  .00014522  00000-0  34801-3 0  9993
2 35870 097.1366 159.4224 0001637 060.4926 090.5919 15.41509523316163
Epoch (UTC): 22 May 2015 12:53:25
Eccentricity: 0.0001637
inclination: 97.1366°
perigee height: 440 km
apogee height: 443 km
right ascension of ascending node: 159.4224°
argument of perigee: 60.4926°
revolutions per day: 15.41509523
mean anomaly at epoch: 90.5919°
orbit number at epoch: 31616

The dashed part of the orbit path shows where the satellite is in the earth's shadow,  

DLR